Pueblo, CO

12:00 AM MST on November 13, 2019 (GMT -0700)
Pueblo Memorial

Weather History for KPUB - October, 2019

Change the Weather History Date:

Sunday, October 20, 2019

  Actual Average Record
Temperature  
Mean Temperature 48 °F 50 °F  
Max Temperature 59 °F 68 °F 86 °F (2003)
Min Temperature 36 °F 33 °F 15 °F (1995)
Degree Days  
Heating Degree Days 18 15  
Month to date heating degree days 231 226  
Since 1 July heating degree days 235 324  
Cooling Degree Days 0 0  
Month to date cooling degree days 0 0  
Year to date cooling degree days 1226 894  
Moisture  
Dew Point 9 °F    
Average Humidity 20    
Maximum Humidity 36    
Minimum Humidity 9    
Precipitation  
Precipitation 0.00 in 0.03 in 0.36 in (1990)
Month to date precipitation 0.06 0.49  
Year to date precipitation 11.22 11.49  
Snow  
Snow 0.00 in 0.10 in 1.50 in (1911)
Month to date snowfall 0.8 0.6  
Since 1 July snowfall 0.8 0.9  
Since 1 September snowfall 0.8 0.9  
Snow Depth 0.00 in    
Sea Level Pressure  
Sea Level Pressure 29.64 in    
Wind  
Wind Speed 16 mph ()    
Max Wind Speed 43 mph    
Max Gust Speed 53 mph    
Visibility 10.0 miles    
Events Rain    
T = Trace of Precipitation, MM = Missing Value Source: Averaged Metar Reports

Daily Weather History Graph

Daily Weather History Graph

Search for Another Location

Airport or City:

Astronomy

Oct. 20, 2019 Rise Set
Actual Time 7:11 AM MDT 6:13 PM MDT
Civil Twilight 6:44 AM MDT 6:40 PM MDT
Nautical Twilight 6:14 AM MDT 7:10 PM MDT
Astronomical Twilight 5:43 AM MDT 7:41 PM MDT
Moon 11:28 PM MDT (10/20) 1:38 PM MDT (10/20)
Length of Visible Light 11h 55m
Length of Day
11h 01m
Waning Gibbous, 58% of the Moon is Illuminated
Oct 20
Waning Gibbous
Oct 21
Last Quarter
Oct 27
New
Nov 4
First Quarter
Nov 12
Full

Hourly Weather History & Observations

Time (MDT) Temp. Windchill Dew Point Humidity Pressure Visibility Wind Dir Wind Speed Gust Speed Precip Events Conditions
12:53 AM 51.1 °F - 12.0 °F 21% 29.46 in 10.0 mi West 10.4 mph - N/A   Clear
1:53 AM 48.0 °F - 12.0 °F 24% 29.45 in 10.0 mi Variable 6.9 mph - N/A   Clear
2:53 AM 44.1 °F 40.8 °F 10.9 °F 26% 29.44 in 10.0 mi NNW 5.8 mph - N/A   Clear
3:53 AM 44.1 °F 42.5 °F 12.0 °F 27% 29.42 in 10.0 mi SW 3.5 mph - N/A   Clear
4:53 AM 43.0 °F 40.3 °F 12.9 °F 30% 29.44 in 10.0 mi WSW 4.6 mph - N/A   Clear
5:53 AM 42.1 °F 37.1 °F 15.1 °F 34% 29.49 in 10.0 mi West 8.1 mph - N/A   Clear
6:53 AM 53.1 °F - 23.0 °F 31% 29.54 in 10.0 mi WNW 24.2 mph 36.8 mph 0.00 in Rain Light Rain
7:53 AM 51.1 °F - 25.0 °F 36% 29.58 in 10.0 mi WNW 25.3 mph - 0.00 in Rain Light Rain
8:53 AM 51.1 °F - 19.9 °F 29% 29.65 in 10.0 mi WNW 29.9 mph 43.7 mph 0.00 in Rain Light Rain
9:53 AM 53.1 °F - 18.0 °F 25% 29.67 in 10.0 mi WNW 29.9 mph 43.7 mph 0.00 in   Partly Cloudy
10:53 AM 55.0 °F - 7.0 °F 15% 29.66 in 10.0 mi West 29.9 mph 42.6 mph N/A   Clear
11:53 AM 55.9 °F - 1.0 °F 11% 29.65 in 10.0 mi WNW 31.1 mph 42.6 mph 0.00 in   Clear
12:53 PM 57.0 °F - 3.0 °F 11% 29.64 in 10.0 mi West 25.3 mph 43.7 mph N/A   Clear
1:53 PM 59.0 °F - 1.9 °F 10% 29.63 in 10.0 mi West 38.0 mph 49.5 mph N/A   Clear
2:53 PM 57.9 °F - 3.9 °F 11% 29.65 in 10.0 mi WNW 33.4 mph 47.2 mph N/A   Clear
3:53 PM 57.0 °F - 1.9 °F 11% 29.68 in 10.0 mi WNW 29.9 mph 44.9 mph N/A   Clear
4:53 PM 55.0 °F - 3.0 °F 12% 29.71 in 10.0 mi NW 26.5 mph 40.3 mph N/A   Clear
5:53 PM 54.0 °F - 3.0 °F 13% 29.74 in 10.0 mi WNW 20.7 mph 35.7 mph N/A   Clear
6:53 PM 52.0 °F - 3.0 °F 14% 29.75 in 10.0 mi WNW 18.4 mph 28.8 mph N/A   Clear
7:53 PM 50.0 °F - 3.9 °F 15% 29.79 in 10.0 mi WNW 24.2 mph 33.4 mph N/A   Clear
8:53 PM 48.0 °F - 7.0 °F 19% 29.81 in 10.0 mi WNW 23.0 mph 31.1 mph N/A   Clear
9:53 PM 48.0 °F - 8.1 °F 20% 29.81 in 10.0 mi WNW 23.0 mph 32.2 mph N/A   Clear
10:53 PM 46.0 °F 38.3 °F 8.1 °F 21% 29.83 in 10.0 mi WNW 20.7 mph 32.2 mph N/A   Clear
11:53 PM 45.0 °F 37.6 °F 8.1 °F 22% 29.82 in 10.0 mi WNW 17.3 mph - N/A   Clear